TimeMDT,TemperatureF,Dew PointF,Humidity,Sea Level PressureIn,VisibilityMPH,Wind Direction,Wind SpeedMPH,Gust SpeedMPH,PrecipitationIn,Events,Conditions,WindDirDegrees,DateUTC
12:53 AM,37.9,19.0,47,29.91,10.0,North,25.3,36.8,N/A,,Clear,360,2013-03-10 07:53:00
1:53 AM,37.0,19.0,48,29.93,9.0,North,27.6,41.4,N/A,,Partly Cloudy,360,2013-03-10 08:53:00
3:53 AM,35.1,19.0,52,29.97,10.0,North,16.1,23.0,N/A,,Clear,360,2013-03-10 09:53:00
4:53 AM,36.0,17.1,46,30.00,10.0,North,23.0,28.8,N/A,,Overcast,350,2013-03-10 10:53:00
6:53 AM,35.1,15.1,44,30.06,10.0,North,12.7,-,N/A,,Overcast,360,2013-03-10 12:53:00
7:53 AM,34.0,15.1,46,30.10,10.0,North,16.1,-,N/A,,Overcast,350,2013-03-10 13:53:00
8:53 AM,37.0,15.1,41,30.12,10.0,North,21.9,27.6,N/A,,Overcast,360,2013-03-10 14:53:00
9:53 AM,39.0,16.0,39,30.12,10.0,North,19.6,25.3,N/A,,Mostly Cloudy,360,2013-03-10 15:53:00
10:53 AM,41.0,16.0,36,30.11,10.0,NNE,16.1,27.6,N/A,,Mostly Cloudy,20,2013-03-10 16:53:00
11:53 AM,46.9,12.9,25,30.08,10.0,North,24.2,31.1,N/A,,Partly Cloudy,360,2013-03-10 17:53:00
12:53 PM,50.0,12.0,22,30.05,10.0,North,19.6,34.5,N/A,,Clear,10,2013-03-10 18:53:00
1:53 PM,50.0,7.0,18,30.03,9.0,North,28.8,46.0,N/A,,Clear,350,2013-03-10 19:53:00
2:53 PM,50.0,3.9,15,30.01,3.0,North,34.5,44.9,N/A,,Haze,360,2013-03-10 20:53:00
3:53 PM,50.0,6.1,17,30.01,10.0,North,28.8,39.1,N/A,,Clear,10,2013-03-10 21:53:00
4:53 PM,50.0,6.1,17,30.01,10.0,North,24.2,31.1,N/A,,Clear,360,2013-03-10 22:53:00
5:53 PM,48.0,7.0,19,30.03,10.0,NNE,15.0,24.2,N/A,,Clear,30,2013-03-10 23:53:00
6:53 PM,43.0,9.0,25,30.06,10.0,ENE,10.4,-,N/A,,Clear,60,2013-03-11 00:53:00
7:53 PM,39.0,10.0,30,30.10,10.0,ENE,6.9,-,N/A,,Clear,60,2013-03-11 01:53:00
8:53 PM,35.1,10.0,35,30.13,10.0,SSE,3.5,-,N/A,,Clear,160,2013-03-11 02:53:00
9:53 PM,35.1,10.9,37,30.14,10.0,Calm,Calm,-,N/A,,Clear,0,2013-03-11 03:53:00
10:53 PM,32.0,10.9,42,30.14,10.0,SW,3.5,-,N/A,,Clear,220,2013-03-11 04:53:00
11:53 PM,30.9,12.0,46,30.12,10.0,WSW,4.6,-,N/A,,Clear,240,2013-03-11 05:53:00
12:53 AM,30.9,12.9,47,30.09,10.0,SW,4.6,-,N/A,,Clear,230,2013-03-11 06:53:00